When you browse on this site, cookies collect data to enhance your experience and personalize the content and advertising you see.
Visit our Privacy Policy to learn more. By continuing to use the site, you agree to this use of cookies and data.
  • In Switzerland
  • List of Countries
  • For 7 days
  • Water Temperature
  • Weather Map
  • Weather Widgets
  • user-avatar
    Login

    Hourly Weather Shkoder

    Today, 31 May, Sunday

    Time Temperature Precipitation Wind Pressure Humidity
    00:00 +13°C° 0 mm 1 mps 739 mmHg 79%
    01:00 +13°C° 0 mm 1 mps 739 mmHg 78%
    02:00 +13°C° 0.4 mm 1 mps 739 mmHg 81%
    03:00 +13°C° 0.4 mm 1 mps 739 mmHg 83%
    04:00 +13°C° 0.4 mm 1 mps 738 mmHg 86%
    05:00 +13°C° 1.2 mm 1 mps 738 mmHg 88%
    06:00 +13°C° 1.2 mm 1 mps 738 mmHg 89%
    07:00 +13°C° 1.2 mm 1 mps 738 mmHg 91%
    08:00 +13°C° 1 mm 1 mps 738 mmHg 90%
    09:00 +14°C° 1 mm 1 mps 738 mmHg 88%
    10:00 +14°C° 1 mm 2 mps 738 mmHg 87%
    11:00 +15°C° 0.3 mm 2 mps 738 mmHg 84%
    12:00 +15°C° 0.3 mm 2 mps 738 mmHg 80%
    13:00 +16°C° 0.3 mm 2 mps 737 mmHg 77%
    14:00 +17°C° 0.3 mm 2 mps 737 mmHg 75%
    15:00 +19°C° 0.3 mm 1 mps 737 mmHg 72%
    16:00 +19°C° 0.3 mm 1 mps 737 mmHg 69%
    17:00 +18°C° 0.3 mm 1 mps 737 mmHg 75%
    18:00 +16°C° 0.3 mm 1 mps 737 mmHg 80%
    19:00 +14°C° 0.3 mm 1 mps 737 mmHg 86%
    20:00 +14°C° 0.2 mm 1 mps 737 mmHg 86%
    21:00 +13°C° 0.2 mm 1 mps 738 mmHg 86%
    22:00 +13°C° 0.2 mm 1 mps 738 mmHg 87%
    23:00 +12°C° 0.5 mm 1 mps 738 mmHg 87%

    Tomorrow, 1 June, Monday

    Time Temperature Precipitation Wind Pressure Humidity
    00:00 +12°C° 0.5 mm 1 mps 738 mmHg 88%
    01:00 +12°C° 0.5 mm 1 mps 738 mmHg 89%
    02:00 +12°C° 0.3 mm 1 mps 737 mmHg 90%
    03:00 +12°C° 0.3 mm 2 mps 737 mmHg 90%
    04:00 +10°C° 0.3 mm 2 mps 737 mmHg 90%
    05:00 +13°C° 0 mm 2 mps 737 mmHg 86%
    06:00 +14°C° 0 mm 1 mps 737 mmHg 82%
    07:00 +15°C° 0 mm 1 mps 737 mmHg 78%
    08:00 +18°C° 0.4 mm 1 mps 737 mmHg 74%
    09:00 +19°C° 0.4 mm 1 mps 738 mmHg 70%
    10:00 +20°C° 0.4 mm 1 mps 738 mmHg 65%
    11:00 +20°C° 0.6 mm 1 mps 738 mmHg 64%
    12:00 +19°C° 0.6 mm 2 mps 737 mmHg 64%
    13:00 +20°C° 0.6 mm 2 mps 737 mmHg 63%
    14:00 +20°C° 0.6 mm 2 mps 737 mmHg 64%
    15:00 +19°C° 0.6 mm 2 mps 737 mmHg 65%
    16:00 +19°C° 0.6 mm 2 mps 737 mmHg 66%
    17:00 +18°C° 0.1 mm 2 mps 737 mmHg 71%
    18:00 +18°C° 0.1 mm 1 mps 737 mmHg 76%
    19:00 +16°C° 0.1 mm 1 mps 737 mmHg 80%
    20:00 +15°C° 0 mm 2 mps 737 mmHg 81%
    21:00 +14°C° 0 mm 2 mps 738 mmHg 81%
    22:00 +13°C° 0 mm 2 mps 738 mmHg 82%
    23:00 +13°C° 0 mm 2 mps 738 mmHg 82%

    Day after tomorrow, 2 June, Tuesday

    Time Temperature Precipitation Wind Pressure Humidity
    00:00 +13°C° 0 mm 2 mps 737 mmHg 82%
    01:00 +12°C° 0 mm 2 mps 737 mmHg 82%
    02:00 +11°C° 0 mm 3 mps 737 mmHg 82%
    03:00 +11°C° 0 mm 3 mps 737 mmHg 82%
    04:00 +11°C° 0 mm 3 mps 737 mmHg 82%
    05:00 +13°C° 0 mm 2 mps 737 mmHg 77%
    06:00 +15°C° 0 mm 2 mps 737 mmHg 73%
    07:00 +16°C° 0 mm 2 mps 737 mmHg 69%
    08:00 +18°C° 0 mm 2 mps 737 mmHg 64%
    09:00 +19°C° 0 mm 2 mps 737 mmHg 59%
    10:00 +20°C° 0 mm 2 mps 737 mmHg 54%
    11:00 +21°C° 0.1 mm 2 mps 737 mmHg 54%
    12:00 +21°C° 0.1 mm 2 mps 737 mmHg 54%
    13:00 +23°C° 0.1 mm 2 mps 737 mmHg 54%
    14:00 +23°C° 0.2 mm 2 mps 736 mmHg 56%
    15:00 +21°C° 0.2 mm 2 mps 736 mmHg 57%
    16:00 +21°C° 0.2 mm 2 mps 736 mmHg 59%
    17:00 +20°C° 0.3 mm 2 mps 736 mmHg 65%
    18:00 +19°C° 0.3 mm 1 mps 736 mmHg 72%
    19:00 +16°C° 0.3 mm 1 mps 736 mmHg 78%
    20:00 +16°C° 0 mm 1 mps 736 mmHg 79%
    21:00 +15°C° 0 mm 1 mps 736 mmHg 81%
    22:00 +14°C° 0 mm 2 mps 736 mmHg 82%
    23:00 +14°C° 0 mm 2 mps 736 mmHg 82%

    3 June, Wednesday

    Time Temperature Precipitation Wind Pressure Humidity
    00:00 +14°C° 0 mm 2 mps 736 mmHg 83%
    01:00 +14°C° 0 mm 2 mps 736 mmHg 83%
    02:00 +13°C° 0 mm 2 mps 736 mmHg 83%
    03:00 +13°C° 0 mm 2 mps 736 mmHg 83%
    04:00 +13°C° 0 mm 2 mps 736 mmHg 82%
    05:00 +14°C° 0 mm 1 mps 735 mmHg 79%
    06:00 +15°C° 0 mm 1 mps 735 mmHg 76%
    07:00 +18°C° 0 mm 1 mps 735 mmHg 72%
    08:00 +19°C° 0 mm 1 mps 735 mmHg 68%
    09:00 +21°C° 0 mm 1 mps 736 mmHg 65%
    10:00 +22°C° 0 mm 1 mps 736 mmHg 61%
    11:00 +21°C° 0.3 mm 2 mps 735 mmHg 62%
    12:00 +21°C° 0.3 mm 2 mps 735 mmHg 64%
    13:00 +21°C° 0.3 mm 3 mps 735 mmHg 65%
    14:00 +21°C° 0.3 mm 3 mps 735 mmHg 67%
    15:00 +21°C° 0.3 mm 3 mps 735 mmHg 69%
    16:00 +21°C° 0.3 mm 3 mps 735 mmHg 71%
    17:00 +19°C° 0.1 mm 2 mps 735 mmHg 76%
    18:00 +18°C° 0.1 mm 2 mps 735 mmHg 81%
    19:00 +16°C° 0.1 mm 1 mps 735 mmHg 86%
    20:00 +16°C° 0 mm 1 mps 736 mmHg 87%
    21:00 +15°C° 0 mm 1 mps 736 mmHg 87%
    22:00 +14°C° 0 mm 1 mps 737 mmHg 88%
    23:00 +14°C° 0 mm 1 mps 737 mmHg 88%

    4 June, Thursday

    Time Temperature Precipitation Wind Pressure Humidity
    00:00 +14°C° 0 mm 1 mps 737 mmHg 87%
    01:00 +14°C° 0 mm 1 mps 737 mmHg 87%
    02:00 +14°C° 0 mm 1 mps 737 mmHg 87%
    03:00 +13°C° 0 mm 1 mps 737 mmHg 86%
    04:00 +13°C° 0 mm 1 mps 737 mmHg 86%
    05:00 +15°C° 0 mm 1 mps 738 mmHg 81%
    06:00 +18°C° 0 mm 1 mps 738 mmHg 76%
    07:00 +19°C° 0 mm 1 mps 738 mmHg 71%
    08:00 +20°C° 0 mm 1 mps 738 mmHg 67%
    09:00 +21°C° 0 mm 2 mps 738 mmHg 63%
    10:00 +23°C° 0 mm 2 mps 738 mmHg 58%
    11:00 +23°C° 0 mm 2 mps 738 mmHg 58%
    12:00 +24°C° 0 mm 2 mps 738 mmHg 57%
    13:00 +24°C° 0 mm 3 mps 738 mmHg 57%
    14:00 +24°C° 0 mm 3 mps 738 mmHg 59%
    15:00 +24°C° 0 mm 2 mps 738 mmHg 61%
    16:00 +24°C° 0 mm 2 mps 738 mmHg 62%
    17:00 +21°C° 0 mm 2 mps 738 mmHg 69%
    18:00 +20°C° 0 mm 1 mps 738 mmHg 75%
    19:00 +19°C° 0 mm 1 mps 738 mmHg 81%
    20:00 +18°C° 0 mm 1 mps 739 mmHg 80%
    21:00 +18°C° 0 mm 1 mps 739 mmHg 80%
    22:00 +16°C° 0 mm 1 mps 739 mmHg 79%
    23:00 +16°C° 0 mm 1 mps 739 mmHg 79%

    5 June, Friday

    Time Temperature Precipitation Wind Pressure Humidity
    00:00 +16°C° 0 mm 1 mps 739 mmHg 79%
    01:00 +15°C° 0 mm 1 mps 739 mmHg 79%
    02:00 +15°C° 0 mm 1 mps 739 mmHg 78%
    03:00 +15°C° 0 mm 1 mps 739 mmHg 78%
    04:00 +15°C° 0 mm 1 mps 739 mmHg 78%
    05:00 +18°C° 0 mm 1 mps 739 mmHg 75%
    06:00 +19°C° 0 mm 1 mps 739 mmHg 71%
    07:00 +21°C° 0 mm 1 mps 739 mmHg 68%
    08:00 +22°C° 0 mm 1 mps 739 mmHg 64%
    09:00 +24°C° 0 mm 1 mps 739 mmHg 60%
    10:00 +25°C° 0 mm 2 mps 739 mmHg 57%
    11:00 +25°C° 0 mm 2 mps 739 mmHg 56%
    12:00 +26°C° 0 mm 3 mps 739 mmHg 55%
    13:00 +26°C° 0 mm 3 mps 739 mmHg 53%
    14:00 +26°C° 0 mm 3 mps 739 mmHg 55%
    15:00 +25°C° 0 mm 3 mps 739 mmHg 56%
    16:00 +25°C° 0 mm 3 mps 739 mmHg 58%
    17:00 +23°C° 0 mm 2 mps 739 mmHg 64%
    18:00 +20°C° 0 mm 2 mps 739 mmHg 70%
    19:00 +20°C° 0 mm 1 mps 739 mmHg 76%
    20:00 +19°C° 0 mm 1 mps 739 mmHg 75%
    21:00 +19°C° 0 mm 1 mps 739 mmHg 74%
    22:00 +18°C° 0 mm 1 mps 740 mmHg 72%
    23:00 +18°C° 0 mm 1 mps 739 mmHg 72%
    Show more